This demonstration page uses our WeatherBlox Daily Observations layout. Learn more.

Left ArrowRight Arrow

39.92423, -83.80882

Hourly Observations for May 17, 2020

Temp ( °F °C ) Dew Point ( °F °C ) Humidity (%) Winds ( mph kmh ) Pressure ( in mb ) Visibility ( mi km ) Precip ( " mm )
12:56 am 00:56 Mostly Clear 65 18.3 58 14.4 78 78 E 8 13 30.02 1017 10 16.0934 0 0
1:56 am 01:56 Clear 64 17.8 57 13.9 78 78 E 10 17 30.01 1016 10 16.0934 0 0
2:56 am 02:56 Mostly Cloudy 64 17.8 57 13.9 78 78 E 10 17 29.99 1016 10 16.0934 0 0
3:56 am 03:56 Cloudy with Light Rain 62 16.7 58 14.4 86 86 NE 6 9 29.98 1015 10 16.0934 0.001 0.001
4:56 am 04:56 Partly Cloudy 61 16.1 57 13.9 87 87 E 9 15 29.97 1015 10 16.0934 0.001 0.001
5:56 am 05:56 Clear 61 16.1 56 13.3 84 84 E 9 15 29.96 1014 10 16.0934 0 0
6:56 am 06:56 Mostly Sunny 59 15 56 13.3 90 90 E 8 13 29.96 1015 10 16.0934 0 0
7:56 am 07:56 Cloudy 62 16.7 57 13.9 84 84 ESE 8 13 29.97 1015 10 16.0934 0 0
8:56 am 08:56 Mostly Cloudy 65 18.3 58 14.4 78 78 ESE 9 15 29.98 1015 10 16.0934 0 0
9:56 am 09:56 Partly Cloudy 69 20.6 61 16.1 76 76 SSE 9 15 29.97 1015 10 16.0934 0.01 0.254
10:56 am 10:56 Sunny 72 22.2 63 17.2 73 73 S 6 9 29.97 1015 10 16.0934 0 0
11:56 am 11:56 Partly Cloudy 74 23.3 64 17.8 71 71 SW 12 19 29.96 1014 10 16.0934 0 0
12:56 pm 12:56 Mostly Sunny 76 24.4 64 17.8 67 67 SW 10 17 29.95 1014 10 16.0934 0 0
1:56 pm 13:56 Sunny 79 26.1 64 17.8 60 60 SSW 9 15 29.92 1013 10 16.0934 0.01 0.254
2:56 pm 14:56 Partly Cloudy 81 27.2 61 16.1 51 51 SSW 14 22 29.9 1013 10 16.0934 0 0
3:56 pm 15:56 Mostly Sunny 80 26.7 61 16.1 52 52 SSW 9 15 29.89 1012 10 16.0934 0 0
4:56 pm 16:56 Partly Cloudy 79 26.1 62 16.7 56 56 SSW 8 13 29.87 1012 10 16.0934 0 0
5:56 pm 17:56 Mostly Cloudy with Light Rain 74 23.3 66 18.9 76 76 W 14 22 29.87 1012 10 16.0934 0.17 4.318
6:56 pm 18:56 Mostly Cloudy 73 22.8 66 18.9 79 79 W 5 7 29.86 1011 10 16.0934 0.001 0.001
7:56 pm 19:56 Cloudy 70 21.1 67 19.4 90 90 Calm 29.85 1011 10 16.0934 0.001 0.001
8:56 pm 20:56 Cloudy with Light Rain 68 20 68 20 100 100 Calm 29.85 1011 10 16.0934 0.001 0.001
9:56 pm 21:56 Cloudy with Light Rain 67 19.4 67 19.4 100 100 E 5 7 29.84 1011 10 16.0934 0.001 0.001
10:56 pm 22:56 Cloudy 66 18.9 66 18.9 100 100 ESE 5 7 29.83 1010 10 16.0934 0.001 0.001
11:56 pm 23:56 Mostly Cloudy 65 18.3 65 18.3 100 100 ESE 5 7 29.82 1010 10 16.0934 0 0

Powered by AerisWeather